User: anonymous   Login
Location: Unspecified
(50.0959°N, 14.3921°E)
Time: 02:06:54
(UTC+01:00)
Language:

AIM - Orbit

View from above orbital plane
View from above orbital plane
View from above satellite
View from above satellite

Ground track
Ground track

The orbit data is extracted from the following two-line orbital elements,

1 31304U 07015A   19046.57809787  .00000562  00000-0  35971-4 0  9997
2 31304  97.9724 264.2497 0004302 211.2012 148.8962 15.12947004646909
Epoch (UTC): 15 February 2019 13:52:27
Eccentricity: 0.0004302
inclination: 97.9724°
perigee height: 524 km
apogee height: 530 km
right ascension of ascending node: 264.2497°
argument of perigee: 211.2012°
revolutions per day: 15.12947004
mean anomaly at epoch: 148.8962°
orbit number at epoch: 64690

The dashed part of the orbit path shows where the satellite is in the earth's shadow,  

DLR